06-03-2022, 00:00:01,      3,    0.0,    2.7,   0.00,   0.00, 1022.5,   84.9, -999.0
06-03-2022, 00:00:11,      4,    0.0,    2.7,   0.00,   0.00, 1022.5,   84.8, -999.0
06-03-2022, 00:00:21,      3,    0.0,    2.7,   0.00,   0.00, 1022.5,   84.9, -999.0
06-03-2022, 00:00:30,      0,    0.0,    2.6,   0.00,   0.00, 1022.5,   84.9, -999.0
06-03-2022, 00:00:41,      0,    0.0,    2.7,   0.00,   0.00, 1022.5,   84.8, -999.0
06-03-2022, 00:00:51,      0,    0.0,    2.6,   0.00,   0.00, 1022.5,   84.6, -999.0
06-03-2022, 00:01:00,      0,    0.0,    2.6,   0.00,   0.00, 1022.5,   84.7, -999.0
06-03-2022, 00:01:10,      0,    0.0,    2.6,   0.00,   0.00, 1022.5,   84.7, -999.0
06-03-2022, 00:01:21,      0,    0.0,    2.6,   0.00,   0.00, 1022.5,   84.6, -999.0
06-03-2022, 00:01:30,      0,    0.0,    2.6,   0.00,   0.00, 1022.5,   84.6, -999.0
06-03-2022, 00:01:40,      0,    0.0,    2.6,   0.00,   0.00, 1022.5,   84.6, -999.0
06-03-2022, 00:01:50,      0,    0.0,    2.6,   0.00,   0.00, 1022.5,   84.6, -999.0
06-03-2022, 00:02:00,      0,    0.0,    2.7,   0.00,   0.00, 1022.5,   84.7, -999.0
06-03-2022, 00:02:10,      0,    0.0,    2.6,   0.00,   0.00, 1022.6,   84.8, -999.0
06-03-2022, 00:02:20,      0,    0.0,    2.6,   0.00,   0.00, 1022.5,   84.6, -999.0
06-03-2022, 00:02:30,      0,    0.0,    2.6,   0.00,   0.00, 1022.5,   84.8, -999.0
06-03-2022, 00:02:40,      5,    0.3,    2.6,   0.00,   0.00, 1022.6,   84.9, -999.0
06-03-2022, 00:02:50,     22,    1.3,    2.6,   0.00,   0.00, 1022.7,   85.0, -999.0
06-03-2022, 00:03:00,     28,    1.5,    2.6,   0.00,   0.00, 1022.6,   84.8, -999.0
06-03-2022, 00:03:10,     26,    0.0,    2.5,   0.00,   0.00, 1022.6,   84.6, -999.0
06-03-2022, 00:03:20,     27,    0.3,    2.5,   0.00,   0.00, 1022.6,   84.7, -999.0
06-03-2022, 00:03:30,     25,    0.6,    2.5,   0.00,   0.00, 1022.6,   85.0, -999.0
06-03-2022, 00:03:40,     29,    0.5,    2.5,   0.00,   0.00, 1022.6,   85.1, -999.0
06-03-2022, 00:03:50,     28,    0.0,    2.5,   0.00,   0.00, 1022.5,   84.7, -999.0
06-03-2022, 00:04:00,     23,    0.0,    2.4,   0.00,   0.00, 1022.5,   84.8, -999.0
06-03-2022, 00:04:09,     23,    0.0,    2.5,   0.00,   0.00, 1022.5,   84.9, -999.0
06-03-2022, 00:04:20,     23,    0.0,    2.5,   0.00,   0.00, 1022.5,   84.9, -999.0
06-03-2022, 00:04:30,     23,    0.0,    2.4,   0.00,   0.00, 1022.5,   84.9, -999.0
06-03-2022, 00:04:39,     23,    0.0,    2.4,   0.00,   0.00, 1022.4,   85.0, -999.0
06-03-2022, 00:04:49,     22,    0.0,    2.5,   0.00,   0.00, 1022.4,   85.0, -999.0
06-03-2022, 00:05:00,     23,    0.0,    2.6,   0.00,   0.00, 1022.4,   85.2, -999.0
06-03-2022, 00:05:09,     22,    0.0,    2.5,   0.00,   0.00, 1022.5,   85.3, -999.0
06-03-2022, 00:05:19,     22,    0.0,    2.6,   0.00,   0.00, 1022.4,   85.2, -999.0
06-03-2022, 00:05:29,     22,    0.0,    2.5,   0.00,   0.00, 1022.5,   85.1, -999.0
06-03-2022, 00:05:39,     22,    0.0,    2.5,   0.00,   0.00, 1022.5,   85.3, -999.0
06-03-2022, 00:05:49,     23,    0.0,    2.5,   0.00,   0.00, 1022.5,   85.4, -999.0
06-03-2022, 00:05:59,     22,    0.0,    2.5,   0.00,   0.00, 1022.5,   85.4, -999.0
06-03-2022, 00:06:09,     28,    0.1,    2.5,   0.00,   0.00, 1022.6,   85.4, -999.0
06-03-2022, 00:06:19,    353,    0.2,    2.5,   0.00,   0.00, 1022.5,   85.4, -999.0
06-03-2022, 00:06:29,    353,    0.0,    2.6,   0.00,   0.00, 1022.5,   85.4, -999.0
06-03-2022, 00:06:39,    352,    0.0,    2.5,   0.00,   0.00, 1022.5,   85.3, -999.0
06-03-2022, 00:06:49,      0,    0.4,    2.5,   0.00,   0.00, 1022.6,   85.5, -999.0
06-03-2022, 00:06:59,      0,    0.3,    2.6,   0.00,   0.00, 1022.6,   85.6, -999.0
06-03-2022, 00:07:09,     33,    0.2,    2.6,   0.00,   0.00, 1022.6,   85.6, -999.0
06-03-2022, 00:07:19,     43,    1.4,    2.6,   0.00,   0.00, 1022.6,   85.7, -999.0
06-03-2022, 00:07:29,     31,    0.6,    2.6,   0.00,   0.00, 1022.5,   85.6, -999.0
06-03-2022, 00:07:39,      0,    0.9,    2.6,   0.00,   0.00, 1022.6,   85.7, -999.0
06-03-2022, 00:07:48,      6,    0.9,    2.5,   0.00,   0.00, 1022.6,   85.7, -999.0
06-03-2022, 00:07:58,      0,    0.7,    2.4,   0.00,   0.00, 1022.6,   85.9, -999.0
06-03-2022, 00:08:09,     80,    0.5,    2.5,   0.00,   0.00, 1022.5,   85.7, -999.0
06-03-2022, 00:08:18,     81,    0.1,    2.5,   0.00,   0.00, 1022.5,   85.8, -999.0
06-03-2022, 00:08:28,     32,    0.2,    2.6,   0.00,   0.00, 1022.6,   86.0, -999.0
06-03-2022, 00:08:38,     31,    0.0,    2.6,   0.00,   0.00, 1022.5,   85.9, -999.0
06-03-2022, 00:08:48,     32,    0.0,    2.5,   0.00,   0.00, 1022.5,   85.8, -999.0
06-03-2022, 00:08:58,     22,    2.8,    2.6,   0.00,   0.00, 1022.6,   86.0, -999.0
06-03-2022, 00:09:08,     13,    1.8,    2.5,   0.00,   0.00, 1022.5,   85.8, -999.0
06-03-2022, 00:09:18,     49,    1.0,    2.5,   0.00,   0.00, 1022.5,   85.8, -999.0
06-03-2022, 00:09:28,     49,    0.1,    2.5,   0.00,   0.00, 1022.5,   85.6, -999.0
06-03-2022, 00:09:38,     48,    0.1,    2.3,   0.00,   0.00, 1022.5,   85.7, -999.0
06-03-2022, 00:09:48,     48,    0.3,    2.4,   0.00,   0.00, 1022.5,   85.9, -999.0
06-03-2022, 00:09:58,     31,    0.2,    2.4,   0.00,   0.00, 1022.5,   85.8, -999.0
06-03-2022, 00:10:08,     31,    0.2,    2.6,   0.00,   0.00, 1022.5,   86.0, -999.0
06-03-2022, 00:10:18,     30,    0.3,    2.5,   0.00,   0.00, 1022.5,   85.9, -999.0
06-03-2022, 00:10:28,     31,    0.0,    2.3,   0.00,   0.00, 1022.4,   85.7, -999.0
06-03-2022, 00:10:38,     43,    0.6,    2.4,   0.00,   0.00, 1022.5,   86.0, -999.0
06-03-2022, 00:10:48,     36,    0.0,    2.3,   0.00,   0.00, 1022.5,   85.6, -999.0
06-03-2022, 00:10:58,     37,    0.0,    2.4,   0.00,   0.00, 1022.4,   85.8, -999.0
06-03-2022, 00:11:07,     36,    0.0,    2.4,   0.00,   0.00, 1022.4,   85.7, -999.0
06-03-2022, 00:11:18,     36,    0.0,    2.4,   0.00,   0.00, 1022.4,   85.9, -999.0
06-03-2022, 00:11:28,     36,    0.0,    2.4,   0.00,   0.00, 1022.4,   85.7, -999.0
06-03-2022, 00:11:37,     36,    0.0,    2.4,   0.00,   0.00, 1022.4,   85.9, -999.0
06-03-2022, 00:11:48,     36,    0.0,    2.4,   0.00,   0.01, 1022.5,   85.7, -999.0
06-03-2022, 00:11:57,     37,    0.0,    2.3,   0.00,   0.00, 1022.5,   85.8, -999.0
06-03-2022, 00:12:07,    333,    0.6,    2.4,   0.00,   0.00, 1022.5,   86.0, -999.0
06-03-2022, 00:12:17,    345,    0.3,    2.6,   0.00,   0.00, 1022.6,   86.1, -999.0
06-03-2022, 00:12:27,    346,    0.1,    2.5,   0.00,   0.00, 1022.5,   86.0, -999.0
06-03-2022, 00:12:37,      5,    0.1,    2.5,   0.00,   0.00, 1022.5,   86.2, -999.0
06-03-2022, 00:12:47,    284,    0.9,    2.4,   0.00,   0.00, 1022.6,   86.4, -999.0
06-03-2022, 00:12:57,      4,    1.4,    2.4,   0.00,   0.00, 1022.6,   86.3, -999.0
06-03-2022, 00:13:07,      0,    0.6,    2.5,   0.00,   0.00, 1022.5,   86.2, -999.0
06-03-2022, 00:13:17,     40,    1.8,    2.5,   0.00,   0.00, 1022.6,   86.2, -999.0
06-03-2022, 00:13:27,     28,    1.2,    2.6,   0.00,   0.00, 1022.6,   86.3, -999.0
06-03-2022, 00:13:37,     41,    0.5,    2.5,   0.00,   0.00, 1022.6,   86.2, -999.0
06-03-2022, 00:13:47,      9,    0.3,    2.4,   0.00,   0.00, 1022.5,   86.1, -999.0
06-03-2022, 00:13:57,     10,    0.0,    2.5,   0.00,   0.00, 1022.5,   86.1, -999.0
06-03-2022, 00:14:07,     10,    0.0,    2.4,   0.00,   0.00, 1022.4,   86.1, -999.0
06-03-2022, 00:14:17,      9,    0.0,    2.4,   0.00,   0.00, 1022.5,   86.1, -999.0
06-03-2022, 00:14:27,     10,    0.1,    2.4,   0.00,   0.00, 1022.5,   86.3, -999.0
06-03-2022, 00:14:37,     10,    0.0,    2.4,   0.00,   0.00, 1022.5,   86.0, -999.0
06-03-2022, 00:14:46,     14,    0.5,    2.5,   0.00,   0.00, 1022.6,   86.4, -999.0
06-03-2022, 00:14:57,     13,    0.0,    2.4,   0.00,   0.00, 1022.5,   86.2, -999.0
06-03-2022, 00:15:07,    358,    0.1,    2.4,   0.00,   0.00, 1022.6,   86.2, -999.0
06-03-2022, 00:15:26,    358,    0.0,    2.5,   0.00,   0.00, 1022.5,   86.1, -999.0
06-03-2022, 00:15:36,    358,    0.0,    2.5,   0.00,   0.00, 1022.5,   86.0, -999.0
06-03-2022, 00:15:46,    342,    0.0,    2.5,   0.00,   0.00, 1022.5,   86.0, -999.0
06-03-2022, 00:15:56,    342,    0.0,    2.4,   0.00,   0.00, 1022.5,   86.2, -999.0
06-03-2022, 00:16:06,    342,    0.3,    2.4,   0.00,   0.00, 1022.5,   86.3, -999.0
06-03-2022, 00:16:16,    343,    0.1,    2.5,   0.00,   0.00, 1022.6,   86.3, -999.0
06-03-2022, 00:16:26,    342,    0.6,    2.6,   0.00,   0.00, 1022.6,   86.6, -999.0
06-03-2022, 00:16:36,    342,    0.0,    2.5,   0.00,   0.00, 1022.5,   86.2, -999.0
06-03-2022, 00:16:46,    345,    0.0,    2.4,   0.00,   0.00, 1022.5,   86.3, -999.0
06-03-2022, 00:16:56,    349,    1.1,    2.5,   0.00,   0.00, 1022.6,   86.6, -999.0
06-03-2022, 00:17:06,    349,    0.2,    2.5,   0.00,   0.00, 1022.5,   86.4, -999.0
06-03-2022, 00:17:16,    349,    0.0,    2.4,   0.00,   0.00, 1022.5,   86.1, -999.0
06-03-2022, 00:17:26,    349,    0.0,    2.4,   0.00,   0.00, 1022.5,   86.3, -999.0
06-03-2022, 00:17:36,    349,    0.0,    2.4,   0.00,   0.00, 1022.5,   86.3, -999.0
06-03-2022, 00:17:46,    349,    0.0,    2.5,   0.00,   0.00, 1022.5,   86.4, -999.0
06-03-2022, 00:17:55,    358,    0.0,    2.5,   0.00,   0.00, 1022.5,   86.4, -999.0
06-03-2022, 00:18:06,     43,    0.2,    2.5,   0.00,   0.00, 1022.5,   86.5, -999.0
06-03-2022, 00:18:16,      9,    0.7,    2.5,   0.00,   0.00, 1022.6,   86.6, -999.0
06-03-2022, 00:18:25,      8,    0.3,    2.5,   0.00,   0.00, 1022.6,   86.5, -999.0
06-03-2022, 00:18:36,      8,    0.0,    2.5,   0.00,   0.00, 1022.4,   86.1, -999.0
06-03-2022, 00:18:46,      8,    0.0,    2.5,   0.00,   0.00, 1022.5,   86.4, -999.0
06-03-2022, 00:18:55,      9,    0.0,    2.4,   0.00,   0.00, 1022.4,   86.2, -999.0
06-03-2022, 00:19:05,      9,    0.1,    2.5,   0.00,   0.00, 1022.6,   86.5, -999.0
06-03-2022, 00:19:15,     19,    0.0,    2.5,   0.00,   0.00, 1022.5,   86.3, -999.0
06-03-2022, 00:19:25,     40,    1.6,    2.5,   0.00,   0.00, 1022.6,   86.5, -999.0
06-03-2022, 00:19:35,      8,    2.6,    2.5,   0.00,   0.00, 1022.6,   86.7, -999.0
06-03-2022, 00:19:45,    358,    0.3,    2.5,   0.00,   0.00, 1022.5,   86.3, -999.0
06-03-2022, 00:19:55,    358,    0.2,    2.5,   0.00,   0.00, 1022.5,   86.4, -999.0
06-03-2022, 00:20:05,    358,    0.0,    2.5,   0.00,   0.00, 1022.5,   86.4, -999.0
06-03-2022, 00:20:15,     47,    0.6,    2.6,   0.00,   0.00, 1022.6,   86.7, -999.0
06-03-2022, 00:20:25,     37,    1.0,    2.5,   0.00,   0.00, 1022.6,   86.8, -999.0
06-03-2022, 00:20:35,     23,    1.3,    2.5,   0.00,   0.00, 1022.6,   86.9, -999.0
06-03-2022, 00:20:45,     23,    0.5,    2.5,   0.00,   0.00, 1022.6,   86.6, -999.0
06-03-2022, 00:20:55,     22,    0.6,    2.6,   0.00,   0.00, 1022.6,   86.7, -999.0
06-03-2022, 00:21:05,     48,    0.0,    2.4,   0.00,   0.00, 1022.5,   86.4, -999.0
06-03-2022, 00:21:15,     46,    0.2,    2.5,   0.00,   0.00, 1022.6,   86.6, -999.0
06-03-2022, 00:21:25,     46,    0.0,    2.5,   0.00,   0.00, 1022.5,   86.4, -999.0
06-03-2022, 00:21:34,      0,    0.3,    2.5,   0.00,   0.00, 1022.6,   86.6, -999.0
06-03-2022, 00:21:45,      2,    1.2,    2.6,   0.00,   0.00, 1022.6,   86.7, -999.0
06-03-2022, 00:21:55,      3,    0.7,    2.5,   0.00,   0.00, 1022.6,   86.7, -999.0
06-03-2022, 00:22:04,     50,    0.3,    2.5,   0.00,   0.00, 1022.6,   86.6, -999.0
06-03-2022, 00:22:15,      5,    1.7,    2.5,   0.00,   0.00, 1022.6,   86.7, -999.0
06-03-2022, 00:22:25,     33,    1.2,    2.5,   0.00,   0.00, 1022.6,   86.8, -999.0
06-03-2022, 00:22:34,     33,    0.1,    2.5,   0.00,   0.00, 1022.6,   86.5, -999.0
06-03-2022, 00:22:44,     38,    0.2,    2.5,   0.00,   0.00, 1022.5,   86.4, -999.0
06-03-2022, 00:22:54,     22,    1.6,    2.6,   0.00,   0.00, 1022.6,   86.9, -999.0
06-03-2022, 00:23:04,     38,    1.3,    2.5,   0.00,   0.00, 1022.6,   86.9, -999.0
06-03-2022, 00:23:14,     38,    0.1,    2.5,   0.00,   0.00, 1022.6,   86.8, -999.0
06-03-2022, 00:23:24,     45,    1.7,    2.5,   0.00,   0.00, 1022.6,   86.7, -999.0
06-03-2022, 00:23:34,     59,    1.1,    2.5,   0.00,   0.00, 1022.6,   86.8, -999.0
06-03-2022, 00:23:44,     51,    0.0,    2.5,   0.00,   0.00, 1022.6,   86.7, -999.0
06-03-2022, 00:23:54,     51,    0.0,    2.5,   0.00,   0.00, 1022.5,   86.6, -999.0
06-03-2022, 00:24:04,     51,    0.0,    2.5,   0.00,   0.00, 1022.4,   86.6, -999.0
06-03-2022, 00:24:14,     51,    0.0,    2.5,   0.00,   0.00, 1022.5,   86.6, -999.0
06-03-2022, 00:24:24,     51,    0.0,    2.5,   0.00,   0.00, 1022.5,   86.7, -999.0
06-03-2022, 00:24:34,     51,    0.0,    2.4,   0.00,   0.00, 1022.5,   86.7, -999.0
06-03-2022, 00:24:44,     51,    0.0,    2.5,   0.00,   0.00, 1022.4,   86.7, -999.0
06-03-2022, 00:24:54,      3,    0.0,    2.6,   0.00,   0.00, 1022.5,   86.8, -999.0
06-03-2022, 00:25:04,      3,    0.0,    2.6,   0.00,   0.00, 1022.5,   86.8, -999.0
06-03-2022, 00:25:13,      3,    0.0,    2.5,   0.00,   0.00, 1022.5,   86.8, -999.0
06-03-2022, 00:25:24,      3,    0.0,    2.5,   0.00,   0.01, 1022.4,   86.6, -999.0
06-03-2022, 00:25:34,      3,    0.0,    2.6,   0.00,   0.00, 1022.5,   86.7, -999.0
06-03-2022, 00:25:43,      3,    0.0,    2.6,   0.00,   0.00, 1022.5,   86.7, -999.0
06-03-2022, 00:25:53,      3,    0.0,    2.6,   0.00,   0.00, 1022.5,   86.6, -999.0
06-03-2022, 00:26:04,      3,    0.0,    2.5,   0.00,   0.00, 1022.5,   86.8, -999.0
06-03-2022, 00:26:13,     13,    0.2,    2.6,   0.00,   0.00, 1022.6,   87.0, -999.0
06-03-2022, 00:26:23,     16,    0.6,    2.6,   0.00,   0.00, 1022.6,   87.0, -999.0
06-03-2022, 00:26:33,     24,    1.9,    2.6,   0.00,   0.00, 1022.7,   86.8, -999.0
06-03-2022, 00:26:43,     25,    0.9,    2.5,   0.00,   0.00, 1022.6,   86.6, -999.0
06-03-2022, 00:26:53,     25,    0.6,    2.6,   0.00,   0.00, 1022.6,   86.7, -999.0
06-03-2022, 00:27:03,     25,    0.7,    2.6,   0.00,   0.00, 1022.6,   86.7, -999.0
06-03-2022, 00:27:13,     26,    0.0,    2.5,   0.00,   0.00, 1022.5,   86.4, -999.0
06-03-2022, 00:27:23,     26,    0.0,    2.4,   0.00,   0.00, 1022.5,   86.4, -999.0
06-03-2022, 00:27:33,     26,    0.0,    2.4,   0.00,   0.00, 1022.5,   86.5, -999.0
06-03-2022, 00:27:43,     26,    0.0,    2.5,   0.00,   0.00, 1022.5,   86.6, -999.0
06-03-2022, 00:27:53,     26,    0.0,    2.5,   0.00,   0.00, 1022.5,   86.4, -999.0
06-03-2022, 00:28:03,     26,    0.0,    2.5,   0.00,   0.00, 1022.5,   86.5, -999.0
06-03-2022, 00:28:13,     26,    0.0,    2.6,   0.00,   0.00, 1022.6,   86.7, -999.0
06-03-2022, 00:28:23,     40,    2.1,    2.6,   0.00,   0.00, 1022.7,   87.0, -999.0
06-03-2022, 00:28:33,     29,    0.8,    2.6,   0.00,   0.00, 1022.7,   86.8, -999.0
06-03-2022, 00:28:43,     29,    0.7,    2.5,   0.00,   0.00, 1022.7,   86.7, -999.0
06-03-2022, 00:28:52,     30,    0.7,    2.5,   0.00,   0.00, 1022.7,   86.7, -999.0
06-03-2022, 00:29:03,     30,    0.0,    2.4,   0.00,   0.00, 1022.6,   86.6, -999.0
06-03-2022, 00:29:13,     26,    0.0,    2.5,   0.00,   0.00, 1022.6,   86.7, -999.0
06-03-2022, 00:29:22,     27,    0.0,    2.3,   0.00,   0.00, 1022.5,   86.5, -999.0
06-03-2022, 00:29:32,     27,    0.0,    2.5,   0.00,   0.00, 1022.5,   86.6, -999.0
06-03-2022, 00:29:43,     27,    0.0,    2.5,   0.00,   0.00, 1022.5,   86.8, -999.0
06-03-2022, 00:29:52,     26,    0.0,    2.4,   0.00,   0.00, 1022.5,   86.5, -999.0
06-03-2022, 00:30:02,     26,    0.0,    2.4,   0.00,   0.00, 1022.5,   86.6, -999.0
06-03-2022, 00:30:12,      0,    1.0,    2.5,   0.00,   0.00, 1022.6,   86.8, -999.0
06-03-2022, 00:30:22,      0,    0.6,    2.5,   0.00,   0.00, 1022.6,   86.6, -999.0
06-03-2022, 00:30:32,      0,    0.0,    2.4,   0.00,   0.00, 1022.6,   86.6, -999.0
06-03-2022, 00:30:42,      0,    0.0,    2.4,   0.00,   0.00, 1022.5,   86.6, -999.0
06-03-2022, 00:30:52,     35,    0.3,    2.5,   0.00,   0.00, 1022.6,   86.8, -999.0
06-03-2022, 00:31:02,     38,    1.4,    2.6,   0.00,   0.00, 1022.7,   87.1, -999.0
06-03-2022, 00:31:12,     28,    1.6,    2.5,   0.00,   0.00, 1022.7,   86.8, -999.0
06-03-2022, 00:31:22,     27,    0.4,    2.5,   0.00,   0.00, 1022.6,   86.8, -999.0
06-03-2022, 00:31:32,     27,    0.0,    2.4,   0.00,   0.00, 1022.5,   86.5, -999.0
06-03-2022, 00:31:42,     27,    0.0,    2.4,   0.00,   0.00, 1022.5,   86.5, -999.0
06-03-2022, 00:31:52,      5,    0.1,    2.5,   0.00,   0.00, 1022.5,   86.5, -999.0
06-03-2022, 00:32:02,      5,    0.0,    2.4,   0.00,   0.00, 1022.5,   86.7, -999.0
06-03-2022, 00:32:12,      5,    0.0,    2.4,   0.00,   0.00, 1022.5,   86.7, -999.0
06-03-2022, 00:32:22,      6,    0.0,    2.4,   0.00,   0.00, 1022.5,   86.7, -999.0
06-03-2022, 00:32:31,      5,    0.0,    2.4,   0.00,   0.00, 1022.5,   86.7, -999.0
06-03-2022, 00:32:41,      5,    0.0,    2.4,   0.00,   0.00, 1022.5,   86.7, -999.0
06-03-2022, 00:32:52,      6,    0.0,    2.4,   0.00,   0.00, 1022.5,   86.7, -999.0
06-03-2022, 00:33:01,      5,    0.0,    2.5,   0.00,   0.00, 1022.5,   86.7, -999.0
06-03-2022, 00:33:11,     38,    1.0,    2.6,   0.00,   0.00, 1022.6,   87.2, -999.0
06-03-2022, 00:33:22,     11,    0.6,    2.5,   0.00,   0.00, 1022.6,   87.0, -999.0
06-03-2022, 00:33:31,     11,    0.0,    2.5,   0.00,   0.00, 1022.5,   86.6, -999.0
06-03-2022, 00:33:41,     15,    0.0,    2.5,   0.00,   0.00, 1022.5,   86.7, -999.0
06-03-2022, 00:33:51,     25,    0.5,    2.5,   0.00,   0.00, 1022.6,   87.0, -999.0
06-03-2022, 00:34:01,     36,    0.6,    2.5,   0.00,   0.00, 1022.6,   87.0, -999.0
06-03-2022, 00:34:11,     37,    0.2,    2.5,   0.00,   0.00, 1022.6,   87.0, -999.0
06-03-2022, 00:34:21,     36,    0.1,    2.4,   0.00,   0.00, 1022.6,   86.9, -999.0
06-03-2022, 00:34:31,     36,    0.0,    2.4,   0.00,   0.00, 1022.5,   86.8, -999.0
06-03-2022, 00:34:41,     36,    0.0,    2.4,   0.00,   0.00, 1022.5,   86.7, -999.0
06-03-2022, 00:34:51,     38,    0.0,    2.4,   0.00,   0.00, 1022.5,   86.8, -999.0
06-03-2022, 00:35:01,     36,    0.0,    2.4,   0.00,   0.00, 1022.5,   86.8, -999.0
06-03-2022, 00:35:11,     38,    0.0,    2.4,   0.00,   0.00, 1022.5,   86.9, -999.0
06-03-2022, 00:35:21,     36,    0.0,    2.5,   0.00,   0.00, 1022.5,   86.9, -999.0
06-03-2022, 00:35:31,     36,    0.0,    2.4,   0.00,   0.00, 1022.5,   87.0, -999.0
06-03-2022, 00:35:41,     31,    0.4,    2.5,   0.00,   0.00, 1022.6,   87.1, -999.0
06-03-2022, 00:35:50,     33,    0.2,    2.5,   0.00,   0.00, 1022.6,   87.1, -999.0
06-03-2022, 00:36:01,     33,    0.1,    2.5,   0.00,   0.00, 1022.6,   87.1, -999.0
06-03-2022, 00:36:11,     27,    0.0,    2.4,   0.00,   0.00, 1022.5,   86.8, -999.0
06-03-2022, 00:36:21,     27,    0.1,    2.5,   0.00,   0.00, 1022.6,   87.0, -999.0
06-03-2022, 00:36:31,     35,    0.0,    2.4,   0.00,   0.00, 1022.5,   86.9, -999.0
06-03-2022, 00:36:40,     28,    0.3,    2.5,   0.00,   0.00, 1022.7,   87.1, -999.0
06-03-2022, 00:36:50,      4,    0.6,    2.4,   0.00,   0.00, 1022.6,   87.2, -999.0
06-03-2022, 00:37:00,      3,    1.3,    2.4,   0.00,   0.00, 1022.7,   87.2, -999.0
06-03-2022, 00:37:10,      4,    0.3,    2.5,   0.00,   0.00, 1022.6,   87.1, -999.0
06-03-2022, 00:37:20,     17,    0.5,    2.5,   0.00,   0.00, 1022.6,   87.2, -999.0
06-03-2022, 00:37:30,     24,    0.4,    2.6,   0.00,   0.00, 1022.7,   87.2, -999.0
06-03-2022, 00:37:40,     39,    0.3,    2.6,   0.00,   0.00, 1022.6,   87.2, -999.0
06-03-2022, 00:37:50,     40,    0.1,    2.5,   0.00,   0.00, 1022.6,   87.1, -999.0
06-03-2022, 00:38:00,     40,    0.1,    2.5,   0.00,   0.00, 1022.6,   87.1, -999.0
06-03-2022, 00:38:10,     40,    0.4,    2.6,   0.00,   0.00, 1022.7,   87.5, -999.0
06-03-2022, 00:38:20,     24,    0.3,    2.6,   0.00,   0.00, 1022.7,   87.5, -999.0
06-03-2022, 00:38:30,     53,    0.5,    2.6,   0.00,   0.00, 1022.7,   87.3, -999.0
06-03-2022, 00:38:40,     53,    0.3,    2.5,   0.00,   0.00, 1022.6,   87.2, -999.0
06-03-2022, 00:38:50,     52,    0.0,    2.4,   0.00,   0.00, 1022.5,   87.0, -999.0
06-03-2022, 00:39:00,      0,    0.2,    2.5,   0.00,   0.00, 1022.6,   87.2, -999.0
06-03-2022, 00:39:10,      0,    0.2,    2.5,   0.00,   0.00, 1022.6,   87.2, -999.0
06-03-2022, 00:39:20,     38,    0.9,    2.6,   0.00,   0.00, 1022.6,   87.4, -999.0
06-03-2022, 00:39:29,     33,    1.7,    2.6,   0.00,   0.00, 1022.7,   87.5, -999.0
06-03-2022, 00:39:40,      0,    0.7,    2.6,   0.00,   0.00, 1022.7,   87.3, -999.0
06-03-2022, 00:39:50,     53,    1.2,    2.6,   0.00,   0.00, 1022.7,   87.2, -999.0
06-03-2022, 00:39:59,     32,    2.7,    2.5,   0.00,   0.00, 1022.7,   87.2, -999.0
06-03-2022, 00:40:09,     10,    1.2,    2.5,   0.00,   0.00, 1022.7,   87.2, -999.0
06-03-2022, 00:40:20,     23,    0.8,    2.5,   0.00,   0.00, 1022.6,   87.3, -999.0
06-03-2022, 00:40:29,     32,    1.3,    2.5,   0.00,   0.00, 1022.6,   87.2, -999.0
06-03-2022, 00:40:39,     29,    0.2,    2.5,   0.00,   0.00, 1022.6,   87.1, -999.0
06-03-2022, 00:40:49,     29,    0.0,    2.5,   0.00,   0.00, 1022.5,   87.1, -999.0
06-03-2022, 00:40:59,     29,    0.0,    2.4,   0.00,   0.00, 1022.5,   87.1, -999.0
06-03-2022, 00:41:09,     29,    0.0,    2.5,   0.00,   0.00, 1022.5,   87.0, -999.0
06-03-2022, 00:41:19,      0,    0.1,    2.4,   0.00,   0.00, 1022.5,   87.3, -999.0
06-03-2022, 00:41:29,      0,    0.0,    2.3,   0.00,   0.00, 1022.5,   87.1, -999.0
06-03-2022, 00:41:39,      4,    0.0,    2.5,   0.00,   0.00, 1022.5,   87.0, -999.0
06-03-2022, 00:41:49,      0,    0.0,    2.5,   0.00,   0.00, 1022.5,   87.1, -999.0
06-03-2022, 00:41:59,      0,    0.0,    2.6,   0.00,   0.00, 1022.5,   86.9, -999.0
06-03-2022, 00:42:09,      0,    0.0,    2.5,   0.00,   0.00, 1022.5,   87.0, -999.0
06-03-2022, 00:42:19,      0,    0.3,    2.5,   0.00,   0.00, 1022.6,   87.2, -999.0
06-03-2022, 00:42:29,      0,    1.2,    2.6,   0.00,   0.00, 1022.6,   87.2, -999.0
06-03-2022, 00:42:39,    358,    0.0,    2.5,   0.00,   0.00, 1022.5,   86.8, -999.0
06-03-2022, 00:42:49,    358,    0.2,    2.4,   0.00,   0.00, 1022.6,   87.0, -999.0
06-03-2022, 00:42:59,     39,    1.7,    2.6,   0.00,   0.00, 1022.6,   87.2, -999.0
06-03-2022, 00:43:08,     45,    1.7,    2.5,   0.00,   0.00, 1022.6,   87.3, -999.0
06-03-2022, 00:43:19,     35,    0.8,    2.5,   0.00,   0.00, 1022.6,   87.0, -999.0
06-03-2022, 00:43:29,     36,    0.0,    2.4,   0.00,   0.00, 1022.5,   86.7, -999.0
06-03-2022, 00:43:38,     36,    0.0,    2.4,   0.00,   0.00, 1022.5,   86.9, -999.0
06-03-2022, 00:43:48,     36,    0.0,    2.4,   0.00,   0.00, 1022.5,   86.8, -999.0
06-03-2022, 00:43:58,     36,    0.0,    2.4,   0.00,   0.00, 1022.5,   86.9, -999.0
06-03-2022, 00:44:08,     35,    0.0,    2.4,   0.00,   0.00, 1022.5,   86.8, -999.0
06-03-2022, 00:44:18,     36,    0.0,    2.5,   0.00,   0.00, 1022.5,   87.0, -999.0
06-03-2022, 00:44:28,     35,    0.0,    2.5,   0.00,   0.00, 1022.5,   87.2, -999.0
06-03-2022, 00:44:38,     36,    0.0,    2.4,   0.00,   0.00, 1022.5,   87.1, -999.0
06-03-2022, 00:44:48,     36,    0.0,    2.5,   0.00,   0.00, 1022.5,   87.0, -999.0
06-03-2022, 00:44:58,     36,    0.2,    2.5,   0.00,   0.00, 1022.6,   87.3, -999.0
06-03-2022, 00:45:08,     45,    0.9,    2.6,   0.00,   0.00, 1022.7,   87.2, -999.0
06-03-2022, 00:45:18,     46,    0.9,    2.6,   0.00,   0.00, 1022.7,   87.2, -999.0
06-03-2022, 00:45:28,     47,    0.9,    2.6,   0.00,   0.00, 1022.7,   87.3, -999.0
06-03-2022, 00:45:38,     18,    0.5,    2.6,   0.00,   0.00, 1022.6,   87.2, -999.0
06-03-2022, 00:45:48,     17,    0.0,    2.5,   0.00,   0.00, 1022.5,   87.0, -999.0
06-03-2022, 00:45:58,      1,    0.4,    2.5,   0.00,   0.00, 1022.6,   87.2, -999.0
06-03-2022, 00:46:08,    336,    0.5,    2.5,   0.00,   0.00, 1022.7,   87.3, -999.0
06-03-2022, 00:46:17,    336,    0.0,    2.4,   0.00,   0.00, 1022.5,   86.7, -999.0
06-03-2022, 00:46:28,    337,    0.0,    2.4,   0.00,   0.00, 1022.5,   86.9, -999.0
06-03-2022, 00:46:38,      0,    0.0,    2.5,   0.00,   0.00, 1022.5,   86.9, -999.0
06-03-2022, 00:46:47,     27,    1.0,    2.6,   0.00,   0.00, 1022.6,   87.2, -999.0